Simultaneous Nadir Overpasses (SNOs) Predictions

Prediction of SNOs between LANDSAT-8 and NOAA-19 Satellite Orbit:

Table of predicted SNOs for the next 14.0 days since TLE Epoch: 12/7/2024
Index Date (LANDSAT-8) Time (LANDSAT-8) Lat,Lon (LANDSAT-8) SZA (LANDSAT-8 ) Date (NOAA-19) Time (NOAA-19) Lat,Lon (NOAA-19) SZA (NOAA-19 ) Distance(km) Time Diff (sec)
1 12/08/2024 17:56:15 -80.15, 119.78 75.78 12/08/2024 17:55:49 -80.14, 119.65 75.80 2.71 26
2 12/08/2024 18:45:38 80.25, -71.68 104.39 12/08/2024 18:46:48 80.24, -71.79 104.40 2.25 70
3 12/11/2024 00:19:23 -80.11, 23.65 75.66 12/11/2024 00:18:17 -80.10, 23.60 75.69 1.23 66
4 12/11/2024 01:08:47 80.17,-168.14 104.45 12/11/2024 01:09:17 80.17,-168.27 104.45 2.43 30
5 12/13/2024 07:31:54 80.14, 95.81 104.54 12/13/2024 07:31:44 80.14, 95.80 104.54 0.30 10
6 12/15/2024 13:55:00 80.09, -0.42 104.56 12/15/2024 13:54:11 80.08, -0.54 104.52 2.51 49
7 12/15/2024 14:44:25 -80.16, 167.83 75.34 12/15/2024 14:45:03 -80.15, 167.69 75.34 2.89 38
8 12/17/2024 21:07:31 -80.12, 71.71 75.34 12/17/2024 21:07:30 -80.12, 71.71 75.34 0.26 1
9 12/20/2024 03:30:37 -80.06, -24.61 75.42 12/20/2024 03:29:58 -80.06, -24.66 75.44 1.01 39



Historial Predications of SNOs between LANDSAT-8 and NOAA-19
